Location: Powder Track
(41.8531°N, 72.3584°W)
Time: 07:31:39
(UTC+00:00)

Altair - Pass Details

Date: 02 August 2021
Orbit: 1501 x 1682 km, 47.2° (Epoch: 19 September)

Event Time Altitude Azimuth Distance (km) Brightness Sun altitude
Exits shadow 03:34:08 10° 94° (E) 3,706 9.3 -27.5°
Drops below altitude 10° 03:34:15 10° 94° (E) 3,722 9.3 -27.5°
Sets 03:39:02 0° 73° (ENE) 4,679 10.0 -27.8°
